Tracking 30995 objects as of 7-Jul-2025
HD Live streaming from Space Station
objects crossing your sky now

STARLINK-31972

Track STARLINK-31972 now!
10-day predictions
STARLINK-31972 is classified as:


NORAD ID: 59923
Int'l Code: 2024-106B
Perigee: 488.8 km
Apogee: 491.5 km
Inclination: 43.0 °
Period: 94.3 minutes
Semi major axis: 6861 km
RCS: Unknown
Launch date: June 1, 2024
Source: United States (US)
Launch site: AIR FORCE EASTERN TEST RANGE (AFETR)
Your satellite tracking list
ATLAS 5 CENTAUR DEB
Track 1 satellite(s)




NASA's NSSDC Master Catalog

Two Line Element Set (TLE):
1 59923U 24106B   25187.32666874  .00000993  00000-0  45602-4 0  9998
2 59923  43.0036 283.9522 0001973 283.4576  76.6056 15.27582157 62890
Source of the keplerian elements: AFSPC